Weather History for KMTP - December, 2012

Change the Weather History Date:

Wednesday, December 19, 2012

  Actual Average (KHTO) Record (KHTO)
Temperature  
Mean Temperature 45 °F -  
Max Temperature 48 °F 41 °F 56 °F (1990)
Min Temperature 42 °F 24 °F 11 °F (1932)
Degree Days  
Heating Degree Days 20    
Moisture  
Dew Point 31 °F    
Average Humidity 59    
Maximum Humidity 74    
Minimum Humidity 50    
Precipitation  
Precipitation 0.00 in - - ()
Sea Level Pressure  
Sea Level Pressure 29.79 in    
Wind  
Wind Speed 15 mph (NW)    
Max Wind Speed 20 mph    
Max Gust Speed 34 mph    
Averages and records for this station are not official NWS values.
T = Trace of Precipitation, MM = Missing Value Source: NWS Daily Summary

Daily Weather History Graph

Daily Weather History Graph

Search for Another Location

Airport or City:

Trip Planner

Search our weather history database for the weather conditions in past years. The results will help you decide how hot, cold, wet, or windy it might be!

Date:

Astronomy

Dec. 19, 2012 Rise Set
Actual Time 7:08 AM EST 4:21 PM EST
Civil Twilight 6:37 AM EST 4:52 PM EST
Nautical Twilight 6:02 AM EST 5:27 PM EST
Astronomical Twilight 5:29 AM EST 6:01 PM EST
Moon 11:12 AM EST (12/19) 11:50 PM EST (12/19)
Length of Visible Light 10h 15m
Length of Day
9h 13m
Waxing Crescent, 45% of the Moon is Illuminated
Dec 19
Waxing Crescent
Dec 20
First Quarter
Dec 28
Full
Jan 4
Last Quarter
Jan 11
New

Hourly Weather History & Observations

Time (EST) Temp. Windchill Dew Point Humidity Pressure Visibility Wind Dir Wind Speed Gust Speed Precip Events Conditions
2:54 AM 45.0 °F 39.7 °F 37.0 °F 74% 29.57 in - West 10.4 mph - N/A   Unknown
5:54 AM 44.1 °F 37.1 °F 33.1 °F 65% 29.60 in - WNW 15.0 mph 27.6 mph N/A   Unknown
6:54 AM 44.1 °F 37.1 °F 32.0 °F 63% 29.62 in - WNW 15.0 mph 29.9 mph N/A   Unknown
7:54 AM 43.0 °F 35.4 °F 32.0 °F 65% 29.63 in - WNW 16.1 mph 29.9 mph N/A   Unknown
8:54 AM 44.1 °F 37.1 °F 32.0 °F 63% 29.66 in - West 15.0 mph 26.5 mph N/A   Unknown
9:54 AM 45.0 °F 37.9 °F 28.9 °F 53% 29.67 in - WNW 16.1 mph 34.5 mph N/A   Unknown
10:54 AM 46.0 °F 39.6 °F 28.9 °F 51% 29.68 in - WNW 15.0 mph 28.8 mph N/A   Unknown
11:54 AM 46.9 °F - 28.9 °F 50% 29.69 in - WNW 16.1 mph 26.5 mph N/A   Unknown
12:54 PM 48.0 °F - 30.9 °F 52% 29.70 in - WNW 17.3 mph 26.5 mph N/A   Unknown
1:54 PM 48.0 °F - 32.0 °F 54% 29.72 in - NW 19.6 mph 25.3 mph N/A   Unknown
2:54 PM 46.9 °F - 32.0 °F 56% 29.75 in - NW 16.1 mph 29.9 mph N/A   Unknown
3:54 PM 45.0 °F 37.1 °F 32.0 °F 60% 29.78 in - NW 19.6 mph 31.1 mph N/A   Unknown
4:54 PM 45.0 °F 38.2 °F 32.0 °F 60% 29.84 in - NW 15.0 mph 25.3 mph N/A   Unknown
5:54 PM 45.0 °F 38.2 °F 30.9 °F 58% 29.89 in - NW 15.0 mph 26.5 mph N/A   Unknown
6:54 PM 45.0 °F 38.5 °F 32.0 °F 60% 29.94 in - NW 13.8 mph 23.0 mph N/A   Unknown
7:54 PM 45.0 °F 38.2 °F 30.9 °F 58% 29.97 in - NW 15.0 mph 21.9 mph N/A   Unknown
8:54 PM 44.1 °F 37.7 °F 30.9 °F 60% 30.00 in - WNW 12.7 mph 21.9 mph N/A   Unknown
9:54 PM 43.0 °F 36.4 °F 30.0 °F 60% 30.02 in - NW 12.7 mph 23.0 mph N/A   Unknown
10:54 PM 42.1 °F 34.9 °F 30.0 °F 62% 30.04 in - NW 13.8 mph 20.7 mph N/A   Unknown
11:54 PM 42.1 °F 34.5 °F 30.0 °F 62% 30.05 in - NW 15.0 mph 21.9 mph N/A   Unknown